TimeEDT,TemperatureF,Dew PointF,Humidity,Sea Level PressureIn,VisibilityMPH,Wind Direction,Wind SpeedMPH,Gust SpeedMPH,PrecipitationIn,Events,Conditions,WindDirDegrees,DateUTC
12:53 AM,43.0,41.0,93,29.85,6.0,North,9.2,-,0.06,Rain,Light Rain,350,2013-04-24 04:53:00
1:03 AM,42.8,41.0,93,29.83,6.0,North,9.2,-,0.00,Rain,Light Rain,10,2013-04-24 05:03:00
1:19 AM,42.8,41.0,93,29.85,5.0,NNW,9.2,-,0.01,Rain,Light Rain,340,2013-04-24 05:19:00
1:28 AM,42.8,41.0,93,29.84,4.0,North,9.2,-,0.02,Rain,Light Rain,350,2013-04-24 05:28:00
1:53 AM,43.0,41.0,93,29.85,5.0,NNW,10.4,-,0.04,Rain,Light Rain,330,2013-04-24 05:53:00
2:53 AM,41.0,39.0,93,29.84,4.0,North,11.5,-,0.01,Rain,Light Rain,350,2013-04-24 06:53:00
3:53 AM,37.9,36.0,93,29.87,8.0,NNW,17.3,-,0.01,Rain,Light Rain,340,2013-04-24 07:53:00
4:53 AM,36.0,34.0,93,29.88,7.0,North,12.7,20.7,0.00,Rain,Light Rain,350,2013-04-24 08:53:00
5:04 AM,35.6,33.8,93,29.87,5.0,North,15.0,-,0.00,Rain,Light Rain,350,2013-04-24 09:04:00
5:53 AM,35.6,33.8,93,29.88,9.0,North,16.1,-,N/A,,Overcast,350,2013-04-24 09:53:00
6:41 AM,35.6,33.8,93,29.90,10.0,NNW,10.4,-,N/A,,Overcast,340,2013-04-24 10:41:00
6:53 AM,35.1,33.1,92,29.91,10.0,North,10.4,-,N/A,,Overcast,350,2013-04-24 10:53:00
7:53 AM,35.1,32.0,89,29.92,10.0,North,11.5,-,N/A,,Overcast,350,2013-04-24 11:53:00
8:53 AM,35.1,32.0,89,29.94,10.0,NNW,11.5,-,N/A,,Overcast,340,2013-04-24 12:53:00
9:53 AM,35.1,32.0,89,29.92,10.0,NNW,10.4,-,0.00,,Overcast,340,2013-04-24 13:53:00
10:53 AM,36.0,32.0,86,29.94,6.0,NNW,11.5,-,0.00,Rain,Light Rain,340,2013-04-24 14:53:00
11:53 AM,37.0,32.0,82,29.98,5.0,NW,9.2,-,0.00,Snow,Light Snow,310,2013-04-24 15:53:00
12:53 PM,39.0,30.9,73,29.96,10.0,WNW,10.4,-,0.00,,Overcast,300,2013-04-24 16:53:00
1:53 PM,41.0,30.0,65,29.96,10.0,WNW,15.0,21.9,N/A,,Mostly Cloudy,290,2013-04-24 17:53:00
2:53 PM,42.1,28.9,60,29.99,10.0,WNW,17.3,24.2,N/A,,Overcast,290,2013-04-24 18:53:00
3:53 PM,43.0,28.0,56,30.01,10.0,WNW,13.8,21.9,N/A,,Mostly Cloudy,300,2013-04-24 19:53:00
4:53 PM,45.0,26.1,48,30.03,10.0,WNW,16.1,24.2,N/A,,Partly Cloudy,300,2013-04-24 20:53:00
5:53 PM,44.1,23.0,43,30.06,10.0,WNW,15.0,24.2,N/A,,Partly Cloudy,290,2013-04-24 21:53:00
6:53 PM,44.1,21.9,42,30.07,10.0,West,11.5,19.6,N/A,,Clear,280,2013-04-24 22:53:00
7:53 PM,43.0,23.0,45,30.09,10.0,West,9.2,-,N/A,,Clear,270,2013-04-24 23:53:00
8:53 PM,39.9,24.1,53,30.11,10.0,SW,5.8,-,N/A,,Clear,220,2013-04-25 00:53:00
9:53 PM,37.0,26.1,65,30.14,10.0,SSW,6.9,-,N/A,,Clear,210,2013-04-25 01:53:00
10:53 PM,37.0,27.0,67,30.16,10.0,South,10.4,-,N/A,,Clear,190,2013-04-25 02:53:00
11:53 PM,36.0,27.0,70,30.15,10.0,SSW,8.1,-,N/A,,Clear,200,2013-04-25 03:53:00